EN

Hourly Weather Aburi

Today, 1 December, Tuesday

Time Temperature Precipitation Wind Pressure Humidity
00:00 +27°C° 0 mm 2 mps 743 mmHg 85%
01:00 +27°C° 0 mm 2 mps 743 mmHg 87%
02:00 +26°C° 0 mm 2 mps 743 mmHg 88%
03:00 +26°C° 0 mm 2 mps 742 mmHg 89%
04:00 +26°C° 0 mm 2 mps 742 mmHg 90%
05:00 +26°C° 0 mm 1 mps 743 mmHg 90%
06:00 +26°C° 0 mm 1 mps 743 mmHg 91%
07:00 +27°C° 0 mm 1 mps 744 mmHg 85%
08:00 +28°C° 0 mm 1 mps 744 mmHg 78%
09:00 +30°C° 0 mm 1 mps 745 mmHg 71%
10:00 +31°C° 0 mm 1 mps 744 mmHg 67%
11:00 +32°C° 0 mm 1 mps 744 mmHg 63%
12:00 +32°C° 0 mm 2 mps 743 mmHg 62%
13:00 +32°C° 0.2 mm 2 mps 743 mmHg 61%
14:00 +32°C° 0.2 mm 2 mps 742 mmHg 59%
15:00 +34°C° 0.2 mm 2 mps 742 mmHg 57%
16:00 +31°C° 0 mm 3 mps 742 mmHg 62%
17:00 +30°C° 0 mm 3 mps 742 mmHg 66%
18:00 +29°C° 0 mm 3 mps 742 mmHg 71%
19:00 +29°C° 0 mm 3 mps 743 mmHg 73%
20:00 +28°C° 0 mm 3 mps 744 mmHg 75%
21:00 +28°C° 0 mm 2 mps 744 mmHg 76%
22:00 +28°C° 0 mm 2 mps 744 mmHg 78%
23:00 +27°C° 0 mm 2 mps 744 mmHg 79%

Tomorrow, 2 December, Wednesday

Time Temperature Precipitation Wind Pressure Humidity
00:00 +27°C° 0 mm 2 mps 743 mmHg 81%
01:00 +27°C° 0 mm 2 mps 743 mmHg 82%
02:00 +27°C° 0 mm 2 mps 743 mmHg 84%
03:00 +26°C° 0 mm 2 mps 742 mmHg 85%
04:00 +26°C° 0 mm 2 mps 743 mmHg 87%
05:00 +26°C° 0 mm 2 mps 743 mmHg 88%
06:00 +25°C° 0 mm 2 mps 743 mmHg 89%
07:00 +27°C° 0 mm 2 mps 743 mmHg 82%
08:00 +28°C° 0 mm 2 mps 744 mmHg 75%
09:00 +30°C° 0 mm 3 mps 744 mmHg 68%
10:00 +31°C° 0 mm 2 mps 744 mmHg 63%
11:00 +32°C° 0 mm 2 mps 744 mmHg 58%
12:00 +33°C° 0 mm 1 mps 743 mmHg 53%
13:00 +35°C° 0.2 mm 2 mps 743 mmHg 52%
14:00 +35°C° 0.2 mm 2 mps 742 mmHg 51%
15:00 +35°C° 0.2 mm 2 mps 742 mmHg 49%
16:00 +33°C° 0.1 mm 3 mps 742 mmHg 58%
17:00 +30°C° 0.1 mm 4 mps 742 mmHg 66%
18:00 +29°C° 0.1 mm 4 mps 742 mmHg 74%
19:00 +28°C° 0 mm 4 mps 743 mmHg 76%
20:00 +28°C° 0 mm 4 mps 743 mmHg 78%
21:00 +28°C° 0 mm 4 mps 744 mmHg 80%
22:00 +27°C° 0 mm 3 mps 744 mmHg 81%
23:00 +27°C° 0 mm 3 mps 744 mmHg 83%

Day after tomorrow, 3 December, Thursday

Time Temperature Precipitation Wind Pressure Humidity
00:00 +27°C° 0 mm 3 mps 743 mmHg 84%
01:00 +27°C° 0 mm 3 mps 743 mmHg 85%
02:00 +26°C° 0 mm 3 mps 743 mmHg 86%
03:00 +26°C° 0 mm 3 mps 743 mmHg 86%
04:00 +26°C° 0 mm 3 mps 743 mmHg 87%
05:00 +26°C° 0 mm 3 mps 743 mmHg 88%
06:00 +26°C° 0 mm 2 mps 744 mmHg 88%
07:00 +27°C° 0 mm 3 mps 744 mmHg 82%
08:00 +28°C° 0 mm 3 mps 744 mmHg 75%
09:00 +30°C° 0 mm 3 mps 745 mmHg 69%
10:00 +31°C° 0 mm 3 mps 745 mmHg 66%
11:00 +31°C° 0 mm 3 mps 744 mmHg 62%
12:00 +33°C° 0 mm 3 mps 744 mmHg 59%
13:00 +33°C° 0.2 mm 3 mps 743 mmHg 59%
14:00 +33°C° 0.2 mm 3 mps 743 mmHg 59%
15:00 +33°C° 0.2 mm 3 mps 742 mmHg 59%
16:00 +31°C° 0.2 mm 3 mps 742 mmHg 64%
17:00 +30°C° 0.2 mm 3 mps 742 mmHg 68%
18:00 +29°C° 0.2 mm 3 mps 743 mmHg 73%
19:00 +28°C° 0 mm 3 mps 743 mmHg 76%
20:00 +28°C° 0 mm 3 mps 743 mmHg 79%
21:00 +27°C° 0 mm 4 mps 744 mmHg 81%
22:00 +27°C° 0 mm 3 mps 744 mmHg 83%
23:00 +27°C° 0 mm 3 mps 744 mmHg 85%

4 December, Friday

Time Temperature Precipitation Wind Pressure Humidity
00:00 +26°C° 0 mm 2 mps 743 mmHg 86%
01:00 +26°C° 0 mm 2 mps 743 mmHg 87%
02:00 +26°C° 0 mm 2 mps 743 mmHg 88%
03:00 +26°C° 0 mm 3 mps 742 mmHg 89%
04:00 +25°C° 0 mm 2 mps 743 mmHg 89%
05:00 +25°C° 0 mm 2 mps 743 mmHg 90%
06:00 +25°C° 0 mm 2 mps 744 mmHg 90%
07:00 +27°C° 0 mm 2 mps 744 mmHg 83%
08:00 +28°C° 0 mm 2 mps 744 mmHg 77%
09:00 +30°C° 0 mm 3 mps 745 mmHg 70%
10:00 +30°C° 0 mm 3 mps 745 mmHg 67%
11:00 +31°C° 0 mm 3 mps 744 mmHg 63%
12:00 +33°C° 0 mm 3 mps 744 mmHg 60%
13:00 +33°C° 0.1 mm 3 mps 744 mmHg 60%
14:00 +33°C° 0.1 mm 3 mps 743 mmHg 59%
15:00 +33°C° 0.1 mm 4 mps 743 mmHg 59%
16:00 +32°C° 0 mm 4 mps 743 mmHg 64%
17:00 +30°C° 0 mm 4 mps 743 mmHg 68%
18:00 +29°C° 0 mm 4 mps 743 mmHg 73%
19:00 +28°C° 0 mm 4 mps 744 mmHg 75%
20:00 +28°C° 0 mm 3 mps 744 mmHg 77%
21:00 +27°C° 0 mm 3 mps 744 mmHg 79%
22:00 +27°C° 0 mm 3 mps 744 mmHg 80%
23:00 +27°C° 0 mm 3 mps 744 mmHg 81%

5 December, Saturday

Time Temperature Precipitation Wind Pressure Humidity
00:00 +27°C° 0 mm 2 mps 744 mmHg 83%
01:00 +26°C° 0 mm 2 mps 743 mmHg 84%
02:00 +26°C° 0 mm 2 mps 743 mmHg 85%
03:00 +26°C° 0 mm 2 mps 743 mmHg 86%
04:00 +25°C° 0 mm 2 mps 743 mmHg 87%
05:00 +25°C° 0 mm 2 mps 743 mmHg 88%
06:00 +25°C° 0 mm 2 mps 743 mmHg 88%
07:00 +27°C° 0 mm 2 mps 744 mmHg 81%
08:00 +28°C° 0 mm 3 mps 744 mmHg 74%
09:00 +30°C° 0 mm 3 mps 745 mmHg 67%
10:00 +31°C° 0 mm 3 mps 744 mmHg 62%
11:00 +33°C° 0 mm 3 mps 744 mmHg 56%
12:00 +34°C° 0 mm 3 mps 744 mmHg 51%
13:00 +34°C° 0.1 mm 3 mps 743 mmHg 52%
14:00 +34°C° 0.1 mm 4 mps 743 mmHg 53%
15:00 +33°C° 0.1 mm 4 mps 742 mmHg 55%
16:00 +32°C° 0.1 mm 4 mps 742 mmHg 59%
17:00 +30°C° 0.1 mm 4 mps 743 mmHg 64%
18:00 +29°C° 0.1 mm 4 mps 743 mmHg 68%
19:00 +28°C° 0 mm 3 mps 743 mmHg 71%
20:00 +28°C° 0 mm 3 mps 744 mmHg 73%
21:00 +27°C° 0 mm 3 mps 744 mmHg 76%
22:00 +27°C° 0.1 mm 3 mps 744 mmHg 77%
23:00 +27°C° 0.1 mm 2 mps 744 mmHg 79%

6 December, Sunday

Time Temperature Precipitation Wind Pressure Humidity
00:00 +27°C° 0.1 mm 2 mps 744 mmHg 81%
01:00 +26°C° 0.1 mm 2 mps 743 mmHg 82%
02:00 +26°C° 0.1 mm 2 mps 743 mmHg 83%
03:00 +26°C° 0.1 mm 3 mps 743 mmHg 84%
04:00 +25°C° 0 mm 2 mps 743 mmHg 84%
05:00 +25°C° 0 mm 2 mps 743 mmHg 85%
06:00 +25°C° 0 mm 2 mps 743 mmHg 86%
07:00 +27°C° 0 mm 2 mps 744 mmHg 79%
08:00 +28°C° 0 mm 3 mps 744 mmHg 72%
09:00 +30°C° 0 mm 3 mps 745 mmHg 65%
10:00 +31°C° 0 mm 3 mps 745 mmHg 61%
11:00 +33°C° 0 mm 4 mps 744 mmHg 58%
12:00 +34°C° 0 mm 4 mps 744 mmHg 54%
13:00 +34°C° 0.4 mm 4 mps 743 mmHg 56%
14:00 +33°C° 0.4 mm 4 mps 743 mmHg 58%
15:00 +33°C° 0.4 mm 5 mps 742 mmHg 60%
16:00 +32°C° 0.1 mm 4 mps 742 mmHg 64%
17:00 +30°C° 0.1 mm 4 mps 743 mmHg 69%
18:00 +28°C° 0.1 mm 4 mps 743 mmHg 73%
19:00 +28°C° 0 mm 4 mps 743 mmHg 75%
20:00 +28°C° 0 mm 3 mps 744 mmHg 77%
21:00 +27°C° 0 mm 3 mps 744 mmHg 79%
22:00 +27°C° 0 mm 3 mps 744 mmHg 81%
23:00 +27°C° 0 mm 3 mps 744 mmHg 83%
Show more